Flag for United Kingdom Weather past 2 weeks in Bournemouth, England, United Kingdom

Now
63 °F

Sunny.


Feels Like: 63 °F
Forecast: 60 / 67 °F
Wind: 8 mph from West

Location: Bournemouth Airport

Current Time: Jul 31, 2014 at 9:05:49 AM

Latest Report: Jul 31, 2014 at 8:20 AM


Visibility: 10 mi

Pressure: 30.01 "Hg

Humidity: 77%

Dew point: 55 °F

Location of BournemouthLocation

Historic Weather in Bournemouth — Graph

°F

Bournemouth temperature yesterday

Maximum temperature yesterday: 77 °F (at 3:20 PM)
Minimum temperature yesterday: 52 °F (at 5:20 AM)
Average temperature yesterday: 67 °F

Past Weeks' High & Low Weather Summary

 TemperatureHumidityPressure
High86 °F (Jul 26, 4:50 PM)100% (Jul 17, 5:50 AM)30.21 "Hg (Jul 17, 5:50 AM)
Low50 °F (Jul 31, 4:50 AM)24% (Jul 25, 11:50 AM)29.71 "Hg (Jul 19, 5:20 PM)
Average69 °F68%30.00 "Hg
* Reported Jul 16 7:20 AM — Jul 31 7:50 AM, Bournemouth, Weather by CustomWeather, © 2014

Note: Actual official high and low records may vary slightly from our data, if they occured in-between our weather recording intervals... More about our weather records

Advertising

Bournemouth weather history for previous 24 hours

 ConditionsComfort  
Time TempWeatherWind HumidityBarometerVisibility
7:50 AM
Jul 31
61 °FSunny.6 mph88%30.01 "Hg10 mi
7:20 AM59 °FSunny.3 mph88%30.01 "Hg10 mi
6:50 AM55 °FSunny.3 mph100%30.01 "Hg10 mi
6:20 AM50 °FFog.1 mph94%30.01 "HgN/A
5:50 AM50 °FFog.1 mph94%30.01 "HgN/A
5:20 AM50 °FClear.1 mph94%30.01 "Hg10 mi
4:50 AM50 °FClear.1 mph94%30.01 "Hg10 mi
2:50 AM54 °FClear.3 mph88%30.01 "Hg10 mi
1:20 AM54 °FClear.2 mph100%30.01 "Hg10 mi
10:20 PM
Jul 30
63 °FClear.7 mph73%30.04 "Hg10 mi
9:20 PM64 °FSunny.8 mph64%30.01 "Hg10 mi
8:50 PM66 °FSunny.8 mph60%30.01 "Hg10 mi
8:20 PM68 °FSunny.9 mph56%30.01 "Hg10 mi
7:50 PM72 °FPassing clouds.9 mph53%30.01 "HgN/A
7:20 PM73 °FPassing clouds.12 mph50%30.01 "HgN/A
6:50 PM75 °FPassing clouds.9 mph47%29.98 "HgN/A
6:20 PM75 °FPassing clouds.9 mph47%29.98 "HgN/A
5:50 PM77 °FPassing clouds.13 mph42%30.01 "HgN/A
5:20 PM77 °FPassing clouds.12 mph42%30.01 "HgN/A
4:50 PM75 °FPassing clouds.12 mph44%30.01 "HgN/A
4:20 PM75 °FPassing clouds.12 mph47%30.01 "HgN/A
3:50 PM77 °FPassing clouds.10 mph42%30.01 "HgN/A
3:20 PM77 °FPassing clouds.12 mph44%30.01 "HgN/A
2:50 PM75 °FPassing clouds.12 mph47%30.01 "HgN/A
2:20 PM75 °FPassing clouds.9 mph47%30.01 "HgN/A
1:50 PM75 °FPassing clouds.9 mph47%30.01 "HgN/A
1:20 PM75 °FPassing clouds.9 mph47%30.04 "HgN/A
12:50 PM73 °FPassing clouds.9 mph47%30.04 "HgN/A
12:20 PM73 °FPassing clouds.10 mph47%30.04 "HgN/A
11:50 AM72 °FPassing clouds.9 mph47%30.04 "HgN/A
11:20 AM72 °FPassing clouds.8 mph47%30.04 "HgN/A
10:50 AM68 °FPassing clouds.6 mph53%30.04 "HgN/A
10:20 AM68 °FScattered clouds.6 mph53%30.04 "HgN/A
9:50 AM68 °FScattered clouds.6 mph56%30.04 "HgN/A
9:20 AM66 °FSunny.6 mph64%30.04 "Hg10 mi
Weather by CustomWeather, © 2014

See weather overviewHow to use our weather pages